When you browse on this site, cookies collect data to enhance your experience and personalize the content and advertising you see.
Visit our Privacy Policy to learn more. By continuing to use the site, you agree to this use of cookies and data.
  • In Czech Republic
  • List of Countries
  • For 7 days
  • Water Temperature
  • Satellite Maps
  • Weather Map
  • Weather Widgets
  • user-avatar
    Login

    Hourly Weather Maline

    Today, 25 May, Saturday

    Time Temperature Precipitation Wind Pressure Humidity
    00:00 +16°C° 0 mm 1 mps 741 mmHg 88%
    01:00 +16°C° 0 mm 1 mps 741 mmHg 89%
    02:00 +15°C° 0 mm 1 mps 741 mmHg 91%
    03:00 +15°C° 0 mm 1 mps 741 mmHg 91%
    04:00 +15°C° 0 mm 1 mps 741 mmHg 92%
    05:00 +15°C° 0 mm 1 mps 741 mmHg 93%
    06:00 +18°C° 0 mm 1 mps 741 mmHg 88%
    07:00 +19°C° 0 mm 1 mps 741 mmHg 83%
    08:00 +20°C° 0 mm 2 mps 741 mmHg 78%
    09:00 +21°C° 0.1 mm 2 mps 741 mmHg 71%
    10:00 +22°C° 0.1 mm 3 mps 741 mmHg 63%
    11:00 +25°C° 0.1 mm 3 mps 740 mmHg 55%
    12:00 +24°C° 1.3 mm 3 mps 740 mmHg 59%
    13:00 +24°C° 1.3 mm 3 mps 740 mmHg 63%
    14:00 +24°C° 1.3 mm 3 mps 740 mmHg 66%
    15:00 +22°C° 0.2 mm 3 mps 740 mmHg 65%
    16:00 +22°C° 0.2 mm 4 mps 740 mmHg 65%
    17:00 +22°C° 0.2 mm 4 mps 740 mmHg 64%
    18:00 +20°C° 0 mm 3 mps 740 mmHg 69%
    19:00 +19°C° 0 mm 2 mps 740 mmHg 75%
    20:00 +18°C° 0 mm 1 mps 740 mmHg 81%
    21:00 +16°C° 0 mm 2 mps 740 mmHg 82%
    22:00 +15°C° 0 mm 2 mps 740 mmHg 83%
    23:00 +13°C° 0 mm 3 mps 740 mmHg 83%

    Tomorrow, 26 May, Sunday

    Time Temperature Precipitation Wind Pressure Humidity
    00:00 +14°C° 0 mm 2 mps 740 mmHg 86%
    01:00 +13°C° 0 mm 2 mps 741 mmHg 89%
    02:00 +12°C° 0 mm 2 mps 741 mmHg 92%
    03:00 +12°C° 0 mm 2 mps 741 mmHg 91%
    04:00 +12°C° 0 mm 2 mps 741 mmHg 90%
    05:00 +12°C° 0 mm 2 mps 742 mmHg 90%
    06:00 +12°C° 0 mm 3 mps 742 mmHg 82%
    07:00 +13°C° 0 mm 3 mps 742 mmHg 73%
    08:00 +16°C° 0 mm 3 mps 742 mmHg 65%
    09:00 +17°C° 0 mm 4 mps 742 mmHg 59%
    10:00 +18°C° 0 mm 4 mps 742 mmHg 54%
    11:00 +19°C° 0 mm 4 mps 742 mmHg 48%
    12:00 +19°C° 0 mm 5 mps 742 mmHg 47%
    13:00 +20°C° 0 mm 5 mps 742 mmHg 46%
    14:00 +21°C° 0 mm 5 mps 742 mmHg 46%
    15:00 +20°C° 0 mm 5 mps 742 mmHg 48%
    16:00 +20°C° 0 mm 5 mps 742 mmHg 51%
    17:00 +20°C° 0 mm 5 mps 741 mmHg 54%
    18:00 +18°C° 0 mm 4 mps 741 mmHg 62%
    19:00 +16°C° 0 mm 3 mps 742 mmHg 69%
    20:00 +15°C° 0 mm 2 mps 742 mmHg 77%
    21:00 +14°C° 0 mm 2 mps 742 mmHg 79%
    22:00 +14°C° 0 mm 2 mps 742 mmHg 82%
    23:00 +13°C° 0 mm 2 mps 742 mmHg 84%

    Day after tomorrow, 27 May, Monday

    Time Temperature Precipitation Wind Pressure Humidity
    00:00 +12°C° 0 mm 2 mps 743 mmHg 87%
    01:00 +12°C° 0 mm 2 mps 743 mmHg 89%
    02:00 +10°C° 0 mm 2 mps 743 mmHg 91%
    03:00 +12°C° 0 mm 2 mps 743 mmHg 90%
    04:00 +12°C° 0 mm 2 mps 743 mmHg 90%
    05:00 +12°C° 0 mm 2 mps 743 mmHg 89%
    06:00 +13°C° 0 mm 3 mps 743 mmHg 81%
    07:00 +14°C° 0 mm 4 mps 744 mmHg 73%
    08:00 +17°C° 0 mm 4 mps 744 mmHg 66%
    09:00 +19°C° 0 mm 5 mps 744 mmHg 61%
    10:00 +20°C° 0 mm 5 mps 744 mmHg 56%
    11:00 +22°C° 0 mm 6 mps 744 mmHg 51%
    12:00 +23°C° 0.1 mm 5 mps 744 mmHg 51%
    13:00 +23°C° 0.1 mm 5 mps 744 mmHg 51%
    14:00 +25°C° 0.1 mm 5 mps 744 mmHg 51%
    15:00 +25°C° 0.1 mm 5 mps 744 mmHg 51%
    16:00 +25°C° 0.1 mm 4 mps 743 mmHg 52%
    17:00 +25°C° 0.1 mm 4 mps 743 mmHg 52%
    18:00 +22°C° 0.1 mm 3 mps 743 mmHg 62%
    19:00 +20°C° 0.1 mm 3 mps 743 mmHg 72%
    20:00 +18°C° 0.1 mm 2 mps 743 mmHg 82%
    21:00 +17°C° 0 mm 2 mps 743 mmHg 86%
    22:00 +17°C° 0 mm 2 mps 744 mmHg 89%
    23:00 +16°C° 0 mm 2 mps 744 mmHg 93%

    28 May, Tuesday

    Time Temperature Precipitation Wind Pressure Humidity
    00:00 +16°C° 0 mm 2 mps 744 mmHg 94%
    01:00 +16°C° 0 mm 2 mps 744 mmHg 95%
    02:00 +16°C° 0 mm 2 mps 744 mmHg 96%
    03:00 +16°C° 0 mm 2 mps 744 mmHg 95%
    04:00 +17°C° 0 mm 2 mps 744 mmHg 94%
    05:00 +17°C° 0 mm 2 mps 744 mmHg 93%
    06:00 +18°C° 0.2 mm 3 mps 744 mmHg 88%
    07:00 +20°C° 0.2 mm 3 mps 744 mmHg 84%
    08:00 +22°C° 0.2 mm 3 mps 744 mmHg 79%
    09:00 +23°C° 0.6 mm 4 mps 744 mmHg 75%
    10:00 +25°C° 0.6 mm 4 mps 744 mmHg 72%
    11:00 +26°C° 0.6 mm 4 mps 743 mmHg 68%
    12:00 +25°C° 0.9 mm 4 mps 743 mmHg 71%
    13:00 +25°C° 0.9 mm 4 mps 743 mmHg 74%
    14:00 +25°C° 0.9 mm 4 mps 743 mmHg 77%
    15:00 +25°C° 1 mm 4 mps 743 mmHg 77%
    16:00 +25°C° 1 mm 4 mps 743 mmHg 77%
    17:00 +25°C° 1 mm 4 mps 742 mmHg 77%
    18:00 +23°C° 0.1 mm 4 mps 743 mmHg 78%
    19:00 +21°C° 0.1 mm 3 mps 743 mmHg 80%
    20:00 +20°C° 0.1 mm 3 mps 743 mmHg 81%
    21:00 +19°C° 0 mm 3 mps 743 mmHg 82%
    22:00 +19°C° 0 mm 3 mps 743 mmHg 83%
    23:00 +19°C° 0 mm 4 mps 743 mmHg 83%

    29 May, Wednesday

    Time Temperature Precipitation Wind Pressure Humidity
    00:00 +18°C° 0 mm 4 mps 743 mmHg 84%
    01:00 +18°C° 0 mm 4 mps 742 mmHg 85%
    02:00 +17°C° 0 mm 4 mps 742 mmHg 86%
    03:00 +17°C° 0 mm 4 mps 742 mmHg 85%
    04:00 +17°C° 0 mm 4 mps 742 mmHg 83%
    05:00 +16°C° 0 mm 5 mps 742 mmHg 82%
    06:00 +17°C° 0 mm 5 mps 742 mmHg 77%
    07:00 +19°C° 0 mm 5 mps 742 mmHg 72%
    08:00 +20°C° 0 mm 5 mps 742 mmHg 67%
    09:00 +22°C° 0.1 mm 5 mps 742 mmHg 65%
    10:00 +23°C° 0.1 mm 5 mps 742 mmHg 63%
    11:00 +25°C° 0.1 mm 5 mps 743 mmHg 61%
    12:00 +26°C° 0.1 mm 5 mps 743 mmHg 59%
    13:00 +27°C° 0.1 mm 5 mps 743 mmHg 56%
    14:00 +28°C° 0.1 mm 5 mps 743 mmHg 53%
    15:00 +27°C° 2.4 mm 4 mps 743 mmHg 61%
    16:00 +26°C° 2.4 mm 4 mps 743 mmHg 69%
    17:00 +25°C° 2.4 mm 3 mps 743 mmHg 77%
    18:00 +23°C° 1.6 mm 2 mps 744 mmHg 82%
    19:00 +21°C° 1.6 mm 2 mps 744 mmHg 86%
    20:00 +20°C° 1.6 mm 1 mps 744 mmHg 90%
    21:00 +18°C° 0.3 mm 2 mps 745 mmHg 92%
    22:00 +18°C° 0.3 mm 3 mps 745 mmHg 94%
    23:00 +17°C° 0.3 mm 4 mps 746 mmHg 96%

    30 May, Thursday

    Time Temperature Precipitation Wind Pressure Humidity
    00:00 +15°C° 0 mm 4 mps 746 mmHg 95%
    01:00 +15°C° 0 mm 4 mps 747 mmHg 95%
    02:00 +14°C° 0 mm 4 mps 747 mmHg 94%
    03:00 +13°C° 0 mm 4 mps 748 mmHg 93%
    04:00 +13°C° 0 mm 4 mps 748 mmHg 92%
    05:00 +13°C° 0 mm 4 mps 749 mmHg 91%
    06:00 +13°C° 0 mm 4 mps 749 mmHg 87%
    07:00 +14°C° 0 mm 4 mps 750 mmHg 82%
    08:00 +14°C° 0 mm 4 mps 750 mmHg 78%
    09:00 +17°C° 0 mm 4 mps 751 mmHg 70%
    10:00 +18°C° 0 mm 4 mps 751 mmHg 62%
    11:00 +19°C° 0 mm 4 mps 751 mmHg 54%
    12:00 +20°C° 0 mm 4 mps 751 mmHg 52%
    13:00 +20°C° 0 mm 4 mps 751 mmHg 49%
    14:00 +21°C° 0 mm 4 mps 751 mmHg 47%
    15:00 +20°C° 0 mm 3 mps 751 mmHg 47%
    16:00 +20°C° 0 mm 3 mps 751 mmHg 47%
    17:00 +20°C° 0 mm 3 mps 750 mmHg 47%
    18:00 +18°C° 0 mm 3 mps 750 mmHg 54%
    19:00 +16°C° 0 mm 2 mps 750 mmHg 60%
    20:00 +14°C° 0 mm 2 mps 750 mmHg 67%
    21:00 +13°C° 0 mm 2 mps 750 mmHg 68%
    22:00 +12°C° 0 mm 2 mps 750 mmHg 68%
    23:00 +12°C° 0 mm 2 mps 750 mmHg 69%
    Show more